Погода в Вятском

Россия / Республика Марий Эл     56°46′47″N   48°31′06″E
темп.,
°C
ветер,
м/с
пор.,
м/с
влажн.,
%
обл.,
%
осадки,
мм/ч
давл.,
гПа
погр.,
м
4 марта, чт
чт400:00−6юз4996100 0.6 1001359
03:00−6юз51196100 1.1 1000400
06:00−4юз51195100 0.3 997474
09:00−2юз61194100 0.6 995733
12:00−1ююз71196100 1.1 990878
15:000зюз71398100 3.6 9881002
18:00−3з81681100 0.9 988966
21:00−4зсз10158898 1.0 992930
5 марта, пт
пт500:00−8зсз51292100 0.1 995445
03:00−12зсз479793 0.1 999140
06:00−16сз349745 0.0 100150
09:00−13сз249123 0.0 1003168
12:00−9з24830 0.0 1004343
15:00−7зюз46850 0.0 1006639
18:00−9зюз379599 0.1 1006156
21:00−9зюз4896100 0.3 1008228
6 марта, сб
сб600:00−10з2496100 0.4 1009111
03:00−14сз119796 0.6 101120
06:00−14ссз229699 0.1 101127
09:00−14ссз2494100 0.2 1012209
12:00−12сз3485100 0.0 1012420
15:00−12зсз458799 0.1 1011739
18:00−17зсз3395100 0.1 101245
21:00−19зсз239893 0.1 101221
7 марта, вс
вс700:00−19з339989 0.1 101264
03:00−19зюз2310095 0.1 101247
06:00−20ююз35100100 0.1 1011108
09:00−16ююз4796100 0.1 1009254
12:00−11ю61187100 0.0 1007540
15:00−10ю71388100 0.0 1004704
18:00−9ю71393100 0.6 1001775
21:00−7ю71394100 2.0 997909
8 марта, пн
пн800:00−7ю71394100 1.4 992808
03:00−6ююв61395100 2.4 989737
06:00−10юз71391100 1.1 988762
09:00−10юз81389100 1.2 9901022
12:00−9юз91493100 1.1 9921123
15:00−8з91493100 2.7 994997
18:00−9зсз61194100 1.1 997805
21:00−11зсз4109598 1.3 1000349